Regional Weather Roundup
Issued by NWS Northern Indiana

Home | Current Version | Previous Version | Graphics & Text | Print | Product List | Glossary On
Versions: 1 2 3 4 5 6 7 8 9 10 11 12 13 14 15 16 17 18 19 20 21 22 23 24 25 26 27 28 29 30 31 32 33 34 35 36 37 38 39 40 41 42 43 44 45 46 47 48 49 50
000
ASUS43 KIWX 022010
RWRIWX

KIWX WEATHER ROUNDUP
NATIONAL WEATHER SERVICE NORTHERN INDIANA
400 PM EDT TUE SEP 02 2014

NOTE: "FAIR" INDICATES FEW OR NO CLOUDS BELOW 12,000 FEET WITH NO
SIGNIFICANT WEATHER AND/OR OBSTRUCTIONS TO VISIBILITY.

* THESE STATIONS ARE NOT UNDER NWS QUALITY CONTROL. THEY ALSO MAY NOT
  REPORT WEATHER SUCH AS PRECIPITATION OR FOG.

INZ001>027-022100-
NORTHERN INDIANA

CITY           SKY/WX    TMP DP  RH WIND       PRES   REMARKS
GARY*          PTSUNNY   82  59  44 W14       29.91R
VALPARAISO     MOSUNNY   78  62  57 SW8       29.92S
MICHIGAN CITY* MOSUNNY   77  61  57 NW3       29.92S
LAPORTE*       CLOUDY    76  63  64 N6        29.93S
KNOX*          PTSUNNY   78  64  60 W7        29.91S
SOUTH BEND     MOSUNNY   81  61  50 W7        29.92S
ELKHART*       CLOUDY    75  63  64 W7        29.92S
GOSHEN         MOSUNNY   80  64  58 W14       29.92S
MONTICELLO*    PTSUNNY   76  68  76 SW6       29.93S
LOGANSPORT*    PTSUNNY   75  64  69 SW10      29.94F
ROCHESTER*     PTSUNNY   81  68  65 SW13      29.93S
WARSAW*        MOSUNNY   79  64  61 W10       29.92S
ANGOLA*        CLOUDY    79  66  65 NW6       29.92R
FORT WAYNE     PTSUNNY   77  68  73 SW10      29.93F
HUNTINGTON*    PTSUNNY   76  69  77 SW8       29.93F
PERU/GRISSOM   PTSUNNY   76  71  84 SW14      29.94S
MARION*        PTSUNNY   76  65  70 W8        29.95F HAZE

$$
INZ028>050-022100-
CENTRAL INDIANA

CITY           SKY/WX    TMP DP  RH WIND       PRES   REMARKS
LAFAYETTE      PTSUNNY   76  67  73 SW7       29.94S
KOKOMO*        PTSUNNY   79  66  65 W10       29.94F
MUNCIE*        PTSUNNY   75  67  76 W7        29.95S
INDIANAPOLIS   CLOUDY    76  67  73 W10       29.95F

$$
MIZ043>046-050>051-056>058-064>065-071>073-077>080-022100-
SOUTHWEST LOWER MICHIGAN

CITY           SKY/WX    TMP DP  RH WIND       PRES   REMARKS
BATTLE CREEK   MOSUNNY   77  60  55 W13       29.91R
BENTON HARBOR  MOSUNNY   76  65  68 W10       29.92R
COLDWATER*     MOSUNNY   80  63  56 NW9       29.91S
HILLSDALE*     PTSUNNY   76  64  66 W7        29.92R
HOLLAND        SUNNY     78  60  53 W8        29.92R
GRAND RAPIDS   MOSUNNY   79  58  48 NW16      29.90R
KALAMAZOO      PTSUNNY   78  61  55 NW13      29.91R
STURGIS*         N/A     75  64  69 W6        29.91S
THREE RIVERS*  PTSUNNY   81  61  50 W12G17    29.91S

$$
OHZ001>008-015>018-024>025-022100-
NORTHWEST OHIO

CITY           SKY/WX    TMP DP  RH WIND       PRES   REMARKS
WAUSEON*       PTSUNNY   77  66  69 W6G16     29.90R
DEFIANCE       CLOUDY    76  67  73 VRB5      29.91R
FINDLAY        CLOUDY    75  67  76 SW13      29.91F
TOLEDO EXPRESS PTSUNNY   78  68  71 W10       29.88S
TOLEDO METCALF CLOUDY    75  67  76 SW12      29.90R
LIMA           CLOUDY    74  67  78 W12       29.94F

$$
&&



USA.gov is the U.S. government's official web portal to all federal, state and local government web resources and services.